Simultaneous Nadir Overpasses (SNOs) Predictions

Prediction of SNOs between GOES-17 and METOP-C Satellite Orbit:

Table of predicted SNOs for the next 14.0 days since TLE Epoch: 7/11/2025
Index Date Time (GOES-17) GOES-17 Lat,Lon METOP-C Lat,Lon Distance(km) Time Diff (sec)
1 07/13/2025 03:33:37 0.02, -89.31 -0.34, -90.91 181.83 80
2 07/14/2025 03:15:36 0.03, -89.06 0.72, -85.90 360.29 80
3 07/15/2025 15:31:46 -0.03, -88.66 0.40, -90.43 202.51 80
4 07/16/2025 15:13:46 -0.03, -88.41 -0.73, -85.44 339.73 80
5 07/18/2025 03:30:04 0.02, -88.05 -0.42, -90.00 222.44 80
6 07/19/2025 03:12:04 0.03, -87.81 0.64, -84.99 320.00 80
7 07/20/2025 15:28:13 -0.02, -87.41 0.47, -89.53 242.29 80
8 07/21/2025 15:10:13 -0.02, -87.16 -0.60, -84.52 299.88 80
9 07/23/2025 03:26:32 0.02, -86.80 -0.48, -89.10 262.46 80
10 07/24/2025 03:08:32 0.03, -86.55 0.59, -84.09 280.21 80
11 07/25/2025 15:27:21 -0.02, -86.16 0.52, -88.63 280.93 80
